tDAR Logo tDAR digital antiquity

California Department of Forestry 1948 Aerial Photos: Flightline 13 (Humboldt County)

Creator(s): California Department of Forestry

Year: 1948

» Downloads & Basic Metadata

Summary

A series of aerial photos taken from 1947 to 1948 by the California Department of Forestry in Humboldt County.


Cite this Record

California Department of Forestry 1948 Aerial Photos: Flightline 13 (Humboldt County). California Department of Forestry. 1948. Humboldt State University, Cultural Resources Facility ( tDAR id: 370090) ; doi:10.6067/XCV88W3C7X





Keywords


Temporal Coverage

Calendar Date: 1947 to 1948


Spatial Coverage

min long: -124.662; min lat: 39.935 ; max long: -123.311; max lat: 42.115 ;

File Information

  Name Size Creation Date Date Uploaded Access
a48-hum-cdf2-13-046.jpg 4.24mb Oct 28, 2011 1:30:50 PM Public
a48-hum-cdf2-13-047.jpg 4.27mb Oct 28, 2011 1:31:05 PM Public
a48-hum-cdf2-13-048.jpg 4.81mb Oct 28, 2011 1:31:15 PM Public
a48-hum-cdf2-13-049.jpg 5.19mb Oct 28, 2011 1:31:27 PM Public
a48-hum-cdf2-13-050.jpg 5.31mb Oct 28, 2011 1:32:28 PM Public
a48-hum-cdf2-13-051.jpg 5.38mb Oct 28, 2011 1:32:44 PM Public
a48-hum-cdf2-13-052.jpg 5.69mb Oct 28, 2011 1:33:58 PM Public
a48-hum-cdf2-13-053.jpg 5.37mb Oct 28, 2011 1:34:13 PM Public
a48-hum-cdf2-13-054.jpg 4.97mb Oct 28, 2011 1:36:09 PM Public
a48-hum-cdf2-13-055.jpg 4.66mb Oct 28, 2011 1:36:30 PM Public
a48-hum-cdf2-13-056.jpg 4.79mb Oct 28, 2011 1:36:50 PM Public
a48-hum-cdf2-13-057.jpg 4.93mb Oct 28, 2011 1:38:24 PM Public
a48-hum-cdf2-13-058.jpg 4.95mb Oct 28, 2011 1:38:39 PM Public
a48-hum-cdf2-13-059.jpg 4.99mb Oct 28, 2011 1:38:55 PM Public
a48-hum-cdf2-13-060.jpg 4.81mb Oct 28, 2011 1:40:25 PM Public
a48-hum-cdf2-13-061.jpg 4.93mb Oct 28, 2011 1:40:41 PM Public
a48-hum-cdf2-13-062.jpg 4.90mb Oct 28, 2011 1:41:04 PM Public
a48-hum-cdf2-13-063.jpg 5.31mb Oct 28, 2011 1:41:21 PM Public
a48-hum-cdf2-13-064.jpg 5.39mb Oct 28, 2011 1:42:43 PM Public
a48-hum-cdf2-13-065.jpg 5.12mb Oct 28, 2011 1:42:57 PM Public
a48-hum-cdf2-13-066.jpg 4.99mb Oct 28, 2011 1:44:09 PM Public
a48-hum-cdf2-13-067.jpg 4.91mb Oct 28, 2011 1:44:54 PM Public
a48-hum-cdf2-13-068.jpg 4.96mb Oct 28, 2011 1:45:09 PM Public
a48-hum-cdf2-13-069.jpg 4.99mb Oct 28, 2011 1:45:32 PM Public
a48-hum-cdf2-13-076.jpg 4.37mb Oct 28, 2011 1:46:19 PM Public
a48-hum-cdf2-13-077.jpg 4.87mb Oct 28, 2011 1:46:37 PM Public
a48-hum-cdf2-13-078.jpg 4.89mb Oct 28, 2011 1:48:43 PM Public
a48-hum-cdf2-13-079.jpg 4.81mb Oct 28, 2011 1:48:56 PM Public
a48-hum-cdf2-13-080.jpg 4.88mb Oct 28, 2011 1:49:14 PM Public
a48-hum-cdf2-13-081.jpg 5.34mb Oct 28, 2011 1:49:30 PM Public
a48-hum-cdf2-13-082.jpg 5.26mb Oct 28, 2011 1:49:46 PM Public
a48-hum-cdf2-13-083.jpg 5.31mb Oct 28, 2011 1:51:10 PM Public
a48-hum-cdf2-13-084.jpg 5.46mb Oct 28, 2011 1:51:26 PM Public
a48-hum-cdf2-13-085.jpg 5.15mb Oct 28, 2011 1:51:44 PM Public
a48-hum-cdf2-13-086.jpg 4.63mb Oct 28, 2011 1:53:08 PM Public
a48-hum-cdf2-13-087.jpg 4.65mb Oct 28, 2011 1:53:22 PM Public
a48-hum-cdf2-13-088.jpg 5.09mb Oct 28, 2011 1:54:11 PM Public
a48-hum-cdf2-13-089.jpg 5.47mb Oct 28, 2011 1:54:27 PM Public
a48-hum-cdf2-13-090.jpg 5.36mb Oct 28, 2011 1:54:42 PM Public
a48-hum-cdf2-13-091.jpg 5.34mb Oct 28, 2011 1:56:04 PM Public
a48-hum-cdf2-13-092.jpg 5.23mb Oct 28, 2011 1:56:10 PM Public
a48-hum-cdf2-13-093.jpg 4.99mb Oct 28, 2011 1:56:15 PM Public
a48-hum-cdf2-13-094.jpg 4.61mb Oct 28, 2011 1:56:22 PM Public
a48-hum-cdf2-13-095.jpg 4.37mb Oct 28, 2011 1:57:07 PM Public
a48-hum-cdf2-13-096.jpg 4.11mb Oct 28, 2011 1:57:12 PM Public
a48-hum-cdf2-13-097.jpg 4.05mb Oct 28, 2011 1:57:17 PM Public
a48-hum-cdf2-13-098.jpg 4.09mb Oct 28, 2011 1:57:22 PM Public
a48-hum-cdf2-13-099.jpg 4.45mb Oct 28, 2011 1:57:28 PM Public
a48-hum-cdf2-13-100.jpg 5.22mb Oct 28, 2011 1:57:37 PM Public
a48-hum-cdf2-13-101.jpg 5.36mb Oct 28, 2011 1:58:08 PM Public
a48-hum-cdf2-13-102.jpg 5.41mb Oct 28, 2011 2:00:49 PM Public
a48-hum-cdf2-13-103.jpg 5.43mb Oct 28, 2011 2:01:23 PM Public
a48-hum-cdf2-13-104.jpg 5.14mb Oct 28, 2011 2:01:31 PM Public
a48-hum-cdf2-13-105.jpg 5.14mb Oct 28, 2011 2:01:38 PM Public
a48-hum-cdf2-13-106.jpg 5.35mb Oct 28, 2011 2:01:45 PM Public
a48-hum-cdf2-13-107.jpg 5.52mb Oct 28, 2011 2:01:52 PM Public
a48-hum-cdf2-13-108.jpg 5.23mb Oct 28, 2011 2:02:03 PM Public
a48-hum-cdf2-13-109.jpg 4.96mb Oct 28, 2011 2:02:47 PM Public
a48-hum-cdf2-13-110.jpg 5.13mb Oct 28, 2011 2:03:21 PM Public
a48-hum-cdf2-13-111.jpg 5.06mb Oct 28, 2011 2:04:15 PM Public
a48-hum-cdf2-13-112.jpg 5.12mb Oct 28, 2011 2:04:50 PM Public
a48-hum-cdf2-13-113.jpg 5.28mb Oct 28, 2011 2:05:03 PM Public
a48-hum-cdf2-13-114.jpg 5.18mb Oct 28, 2011 2:05:12 PM Public
a48-hum-cdf2-13-115.jpg 4.59mb Oct 28, 2011 2:05:17 PM Public
a48-hum-cdf2-13-116.jpg 4.30mb Oct 28, 2011 2:05:47 PM Public
a48-hum-cdf2-13-117.jpg 4.73mb Oct 28, 2011 2:05:56 PM Public
a48-hum-cdf2-13-118.jpg 5.15mb Oct 28, 2011 2:06:06 PM Public
a48-hum-cdf2-13-119.jpg 5.20mb Oct 28, 2011 2:06:14 PM Public
a48-hum-cdf2-13-120.jpg 4.87mb Oct 28, 2011 2:06:23 PM Public
a48-hum-cdf2-13-121.jpg 4.58mb Oct 28, 2011 2:06:30 PM Public
a48-hum-cdf2-13-122.jpg 3.88mb Oct 28, 2011 2:07:10 PM Public
a48-hum-cdf2-13-123.jpg 4.78mb Oct 28, 2011 2:09:44 PM Public
a48-hum-cdf2-13-124.jpg 4.80mb Oct 28, 2011 2:09:51 PM Public
a48-hum-cdf2-13-125.jpg 5.01mb Oct 28, 2011 2:09:56 PM Public
a48-hum-cdf2-13-126.jpg 4.66mb Oct 28, 2011 2:10:08 PM Public
a48-hum-cdf2-13-127.jpg 4.14mb Oct 28, 2011 2:10:14 PM Public
a48-hum-cdf2-13-128.jpg 4.06mb Oct 28, 2011 2:10:20 PM Public
a48-hum-cdf2-13-129.jpg 4.37mb Oct 28, 2011 2:10:24 PM Public
a48-hum-cdf2-13-130.jpg 4.98mb Oct 28, 2011 2:11:02 PM Public
a48-hum-cdf2-13-131.jpg 5.13mb Oct 28, 2011 2:12:33 PM Public
a48-hum-cdf2-13-132.jpg 4.93mb Oct 28, 2011 2:12:51 PM Public
a48-hum-cdf2-13-133.jpg 4.64mb Oct 28, 2011 2:13:21 PM Public
a48-hum-cdf2-13-134.jpg 4.58mb Oct 28, 2011 2:13:49 PM Public
a48-hum-cdf2-13-135.jpg 4.89mb Oct 28, 2011 2:13:55 PM Public
a48-hum-cdf2-13-136.jpg 5.14mb Oct 28, 2011 2:14:00 PM Public
a48-hum-cdf2-13-137.jpg 5.08mb Oct 28, 2011 2:14:05 PM Public
a48-hum-cdf2-13-138.jpg 4.82mb Oct 28, 2011 2:14:12 PM Public
a48-hum-cdf2-13-139.jpg 5.04mb Oct 28, 2011 2:14:50 PM Public
a48-hum-cdf2-13-140.jpg 5.27mb Oct 28, 2011 2:15:20 PM Public
a48-hum-cdf2-13-141.jpg 4.79mb Oct 28, 2011 2:15:28 PM Public
a48-hum-cdf2-13-142.jpg 4.81mb Oct 28, 2011 2:15:35 PM Public
a48-hum-cdf2-13-143.jpg 4.87mb Oct 28, 2011 2:15:41 PM Public
a48-hum-cdf2-13-144.jpg 4.92mb Oct 28, 2011 2:15:48 PM Public
a48-hum-cdf2-13-145.jpg 4.16mb Oct 28, 2011 2:17:09 PM Public
a48-hum-cdf2-13-146.jpg 4.27mb Oct 28, 2011 2:17:25 PM Public
a48-hum-cdf2-13-147.jpg 4.50mb Oct 28, 2011 2:17:32 PM Public
a48-hum-cdf2-13-148.jpg 4.19mb Oct 28, 2011 2:17:38 PM Public
a48-hum-cdf2-13-149.jpg 4.19mb Oct 28, 2011 2:17:44 PM Public
a48-hum-cdf2-13-150.jpg 4.63mb Oct 28, 2011 2:18:34 PM Public
a48-hum-cdf2-13-151.jpg 5.03mb Oct 28, 2011 2:19:35 PM Public
a48-hum-cdf2-13-152.jpg 5.66mb Oct 28, 2011 2:20:40 PM Public
a48-hum-cdf2-13-153.jpg 5.31mb Oct 28, 2011 2:20:50 PM Public
a48-hum-cdf2-13-154.jpg 4.78mb Oct 28, 2011 2:20:59 PM Public
a48-hum-cdf2-13-155.jpg 4.13mb Oct 28, 2011 2:21:40 PM Public
a48-hum-cdf2-13-156.jpg 4.25mb Oct 28, 2011 2:21:46 PM Public
a48-hum-cdf2-13-157.jpg 4.61mb Oct 28, 2011 2:21:53 PM Public
a48-hum-cdf2-13-158.jpg 4.46mb Oct 28, 2011 2:21:59 PM Public
a48-hum-cdf2-13-159.jpg 4.16mb Oct 28, 2011 2:22:14 PM Public
a48-hum-cdf2-13-160.jpg 4.82mb Oct 28, 2011 2:22:27 PM Public
a48-hum-cdf2-13-161.jpg 5.31mb Oct 28, 2011 2:22:38 PM Public
a48-hum-cdf2-13-162.jpg 5.04mb Oct 28, 2011 2:22:44 PM Public
a48-hum-cdf2-13-163.jpg 4.57mb Oct 28, 2011 2:22:53 PM Public
a48-hum-cdf2-13-164.jpg 4.43mb Oct 28, 2011 2:23:04 PM Public
a48-hum-cdf2-13-165.jpg 3.99mb Oct 28, 2011 2:23:53 PM Public
a48-hum-cdf2-13-166.jpg 4.30mb Oct 28, 2011 2:24:45 PM Public
a48-hum-cdf2-13-167.jpg 4.58mb Oct 28, 2011 2:24:57 PM Public
a48-hum-cdf2-13-168.jpg 5.08mb Oct 28, 2011 2:25:12 PM Public
a48-hum-cdf2-13-169.jpg 4.91mb Oct 28, 2011 2:25:23 PM Public
a48-hum-cdf2-13-170.jpg 4.71mb Oct 28, 2011 2:25:38 PM Public
a48-hum-cdf2-13-177.jpg 4.76mb Oct 28, 2011 2:25:57 PM Public
a48-hum-cdf2-13-178.jpg 4.45mb Oct 28, 2011 2:26:12 PM Public
a48-hum-cdf2-13-179.jpg 3.89mb Oct 28, 2011 2:27:06 PM Public
a48-hum-cdf2-13-180.jpg 3.40mb Oct 28, 2011 2:27:21 PM Public
a48-hum-cdf2-13-181.jpg 3.44mb Oct 28, 2011 2:27:46 PM Public
a48-hum-cdf2-13-182.jpg 3.21mb Oct 28, 2011 2:28:05 PM Public
a48-hum-cdf2-13-183.jpg 3.28mb Oct 28, 2011 2:28:29 PM Public
a48-hum-cdf2-13-184.jpg 3.24mb Oct 28, 2011 2:29:26 PM Public
a48-hum-cdf2-13-185.jpg 3.46mb Oct 28, 2011 2:29:33 PM Public
a48-hum-cdf2-13-186.jpg 3.66mb Oct 28, 2011 2:29:41 PM Public
a48-hum-cdf2-13-187.jpg 3.95mb Oct 28, 2011 2:29:50 PM Public
a48-hum-cdf2-13-188.jpg 4.35mb Oct 28, 2011 2:30:45 PM Public
a48-hum-cdf2-13-189.jpg 4.22mb Oct 28, 2011 2:30:59 PM Public
a48-hum-cdf2-13-190.jpg 4.09mb Oct 28, 2011 2:31:07 PM Public
a48-hum-cdf2-13-191.jpg 3.90mb Oct 28, 2011 2:32:05 PM Public
a48-hum-cdf2-13-192.jpg 3.88mb Oct 28, 2011 2:32:15 PM Public
a48-hum-cdf2-13-193.jpg 3.82mb Oct 28, 2011 2:32:26 PM Public
a48-hum-cdf2-13-194.jpg 3.60mb Oct 28, 2011 2:32:36 PM Public
a48-hum-cdf2-13-195.jpg 3.59mb Oct 28, 2011 2:32:51 PM Public
a48-hum-cdf2-13-196.jpg 3.71mb Oct 28, 2011 2:33:11 PM Public
a48-hum-cdf2-13-197.jpg 4.04mb Oct 28, 2011 2:33:25 PM Public
a48-hum-cdf2-13-198.jpg 4.44mb Oct 28, 2011 2:33:37 PM Public
a48-hum-cdf2-13-199.jpg 4.29mb Oct 28, 2011 2:34:40 PM Public
flightline-13.jpg 882.11kb Nov 3, 2011 12:22:02 PM Public
Arizona State University The Andrew W. Mellon Foundation National Science Foundation National Endowment for the Humanities Society for American Archaeology Archaeological Institute of America